Location: Newark
(12.4436°N, 0.6167°W)
Time: 10:55:34
(UTC+00:00)

A-11 Canister half - All Passes

Search period start: 15 December 2019 00:00
Search period end: 25 December 2019 00:00
Orbit: 1515 x 1684 km, 47.2° (Epoch: 14 December)

Date Brightness Start Highest point End Pass type
(mag) Time Alt. Az. Time Alt. Az. Time Alt. Az.
15 Dec - 07:59:36 10° SSW 08:08:44 67° SE 08:18:06 10° NE daylight
15 Dec - 10:06:12 10° W 10:13:54 29° NW 10:21:52 10° NNE daylight
15 Dec - 16:35:32 10° N 16:42:43 21° NE 16:49:55 10° E daylight
15 Dec - 18:38:22 10° NW 18:48:34 85° NE 18:58:43 10° SE visible
15 Dec - 20:46:27 10° W 20:53:12 20° SW 20:59:55 10° S visible
16 Dec - 07:36:48 10° SSW 07:45:52 61° SE 07:55:06 10° NE daylight
16 Dec - 09:42:59 10° W 09:50:54 31° NW 09:59:04 10° NNE daylight
16 Dec - 16:12:50 10° N 16:19:38 20° NE 16:26:28 10° E daylight
16 Dec - 18:15:27 10° NW 18:25:37 80° NE 18:35:46 10° SE visible
16 Dec - 20:23:02 10° W 20:30:16 22° SW 20:37:29 10° S visible
17 Dec - 07:14:00 10° SSW 07:22:59 56° SE 07:32:06 10° NE daylight
17 Dec - 09:19:49 10° WSW 09:27:56 33° NW 09:36:17 10° NNE daylight
17 Dec - 15:50:11 10° N 15:56:33 18° NE 16:02:57 10° ENE daylight
17 Dec - 17:52:31 10° NW 18:02:39 74° NE 18:12:47 10° SE visible
17 Dec - 19:59:40 10° WNW 20:07:19 25° SW 20:14:59 10° S visible
18 Dec - 06:51:15 10° SSW 07:00:06 51° SE 07:09:04 10° NE daylight
18 Dec - 08:56:41 10° WSW 09:04:58 36° NW 09:13:29 10° NNE daylight
18 Dec - 15:27:33 10° N 15:33:28 17° NE 15:39:23 10° ENE daylight
18 Dec - 17:29:38 10° NW 17:39:42 69° NE 17:49:47 10° SE daylight
18 Dec - 19:36:21 10° WNW 19:44:24 27° SW 19:52:25 10° S visible
19 Dec - 06:28:31 10° SSW 06:37:14 47° SE 06:46:02 10° ENE daylight
19 Dec - 08:33:33 10° WSW 08:42:00 39° NW 08:50:40 10° NNE daylight
19 Dec - 15:04:58 10° N 15:10:21 15° NNE 15:15:46 10° ENE daylight
19 Dec - 17:06:44 10° NNW 17:16:44 64° NE 17:26:46 10° SE daylight
19 Dec - 19:13:06 10° WNW 19:21:28 30° SW 19:29:50 10° S visible
20 Dec - 06:05:47 10° SSW 06:14:20 43° SE 06:22:58 10° ENE daylight
20 Dec - 08:10:28 10° WSW 08:19:03 42° NW 08:27:52 10° NNE daylight
20 Dec - 14:42:27 10° N 14:47:14 14° NNE 14:52:03 10° ENE daylight
20 Dec - 16:43:52 10° NNW 16:53:46 59° NE 17:03:43 10° SE daylight
20 Dec - 18:49:52 10° WNW 18:58:32 33° SW 19:07:12 10° S visible
21 Dec - 05:43:05 10° SSW 05:51:28 39° SE 05:59:52 10° ENE visible
21 Dec - 07:47:23 10° WSW 07:56:06 46° NW 08:05:02 10° NNE daylight
21 Dec - 14:20:00 10° N 14:24:07 13° NNE 14:28:14 10° NE daylight
21 Dec - 16:21:01 10° NNW 16:30:48 55° NE 16:40:40 10° ESE daylight
21 Dec - 18:26:42 10° WNW 18:35:36 36° SW 18:44:32 10° S visible
22 Dec - 05:20:25 10° S 05:28:35 36° SE 05:36:46 10° ENE visible
22 Dec - 07:24:20 10° WSW 07:33:10 50° NW 07:42:12 10° NNE daylight
22 Dec - 09:37:44 10° NW 09:39:54 11° NNW 09:42:05 10° NNW daylight
22 Dec - 13:57:43 10° N 14:00:58 12° NNE 14:04:15 10° NE daylight
22 Dec - 15:58:09 10° NNW 16:07:49 51° NE 16:17:34 10° ESE daylight
22 Dec - 18:03:33 10° WNW 18:12:40 39° SW 18:21:50 10° SSE visible
23 Dec - 04:57:47 10° S 05:05:43 32° SE 05:13:38 10° ENE visible
23 Dec - 07:01:19 10° WSW 07:10:15 54° NW 07:19:21 10° NNE daylight
23 Dec - 09:13:40 10° NW 09:16:47 12° NNW 09:19:57 10° N daylight
23 Dec - 13:35:43 10° NNE 13:37:49 11° NNE 13:39:56 10° NE daylight
23 Dec - 15:35:19 10° NNW 15:44:51 47° NE 15:54:27 10° ESE daylight
23 Dec - 17:40:26 10° WNW 17:49:44 43° SW 17:59:06 10° SSE daylight
24 Dec - 04:35:09 10° S 04:42:49 29° SE 04:50:27 10° ENE visible
24 Dec - 06:38:18 10° SW 06:47:20 58° NW 06:56:30 10° NNE daylight
24 Dec - 08:49:50 10° NW 08:53:41 13° NNW 08:57:35 10° N daylight
24 Dec - 15:12:30 10° NNW 15:21:51 44° NE 15:31:19 10° ESE daylight
24 Dec - 17:17:20 10° WNW 17:26:48 46° SW 17:36:21 10° SSE daylight
